[[{"header":{"parameterUnit":"m.s-1","parameterCategory":2,"la1":30.2991,"la2":30.254,"lo1":-89.0895,"lo2":-89.0444,"dx":0.0017,"dy":0.0017,"nx":28,"ny":28,"refTime":"2022-11-12T09:00:00:Z","depth":"0","parameterNumber":2,"parameterNumberName":"U-component_of_CURRENTS"},"data":[0,0,0,0,0,0,0,0,0,0,0,0,0,0,0,0,0,0,0,0,0,0,0,0,0,0,0,0,0,0,0,0,0,0,0,0,0,0,0,0,0,0,0,0,0,0,0,0,0,0,0,0,0,0,0,0,0,0,-0.2785,-0.2785,0,-0.2815,-0.2815,-0.2815,-0.2782,-0.2781,-0.278,-0.2779,-0.2747,-0.2747,-0.2747,0,0,0,0,0,0,0,0,0,0,0,0,0,-0.2709,-0.271,-0.2785,-0.2785,-0.2786,-0.2815,-0.2815,-0.2815,-0.2783,-0.2781,-0.278,-0.2779,-0.2747,-0.2747,-0.2747,0,0,0,0,0,0,0,0,0,0,0,0,0,-0.2738,-0.271,-0.2785,-0.2775,-0.2775,-0.2815,-0.2815,-0.2815,-0.2783,-0.2781,-0.278,-0.2778,-0.2747,-0.2747,-0.2747,-0.2778,0,0,-0.2748,-0.2748,0,0,0,0,0,0,0,0,-0.2736,-0.274,-0.2776,-0.2776,-0.2776,-0.2796,-0.2776,-0.2801,-0.2783,-0.2777,-0.2779,-0.2778,-0.276,-0.2759,-0.2765,-0.2777,-0.2775,-0.2748,-0.2748,-0.2748,-0.2748,0,0,0,0,0,0,0,-0.2734,-0.2739,-0.2794,-0.2777,-0.2777,-0.2773,-0.2775,-0.2781,-0.2774,-0.2777,-0.2776,-0.2784,-0.2759,-0.2765,-0.2764,-0.2775,-0.2748,-0.2748,-0.2748,-0.2748,-0.2797,-0.2798,0,0,0,0,0,0,-0.2737,-0.2737,-0.2793,-0.2795,-0.2755,-0.2775,-0.2778,-0.2789,-0.2775,-0.2773,-0.2785,-0.2782,-0.2766,-0.2764,-0.2763,-0.2786,-0.2748,-0.2748,-0.2748,-0.2796,-0.2797,-0.2799,0,0,0,0,0,0,-0.2736,-0.2742,-0.2792,-0.2768,-0.2775,-0.2779,-0.2791,-0.279,-0.279,-0.2782,-0.2777,-0.2785,-0.2765,-0.2763,-0.277,-0.2785,-0.2748,-0.2748,-0.2794,-0.2796,-0.2798,-0.284,0,0,0,0,0,0,-0.2733,-0.2741,-0.2747,-0.2769,-0.2776,-0.2819,-0.2793,-0.2792,-0.2799,-0.2795,-0.2781,-0.2777,-0.2763,-0.277,-0.277,-0.2784,-0.2748,-0.2793,-0.2795,-0.2797,-0.2837,-0.2843,-0.2848,0,0,0,0,0,-0.2731,-0.2744,-0.2747,-0.2754,-0.2785,-0.282,-0.2823,-0.2819,-0.28,-0.281,-0.2799,-0.2777,-0.2784,-0.2771,-0.2771,-0.2785,-0.2792,-0.2795,-0.2797,-0.2835,-0.2842,-0.2848,0,0,0,0,0,0,-0.2713,-0.2744,-0.2746,-0.2768,-0.2795,-0.2815,-0.2822,-0.2822,-0.2823,-0.281,-0.2794,-0.2791,-0.2802,-0.2794,-0.278,-0.2808,-0.2784,-0.2787,-0.2813,-0.282,-0.2825,-0.2818,-0.2748,0,0,0,0,0,-0.2715,-0.2728,-0.2764,-0.2779,-0.2794,-0.2809,-0.282,-0.282,-0.2828,-0.2825,-0.282,-0.2813,-0.2818,-0.2817,-0.2819,-0.2838,-0.2816,-0.2847,-0.2853,-0.2858,-0.2853,-0.2839,-0.2842,-0.2808,-0.2808,-0.2808,0,0,-0.271,-0.2729,-0.2736,-0.2776,-0.2791,-0.2824,-0.2811,-0.283,-0.2851,-0.2823,-0.2839,-0.2832,-0.2828,-0.2846,-0.285,-0.2837,-0.2859,-0.2861,-0.2865,-0.2858,-0.2842,-0.2845,-0.2848,-0.281,-0.2809,-0.2809,0,0,-0.2716,-0.2729,-0.2748,-0.2778,-0.281,-0.2825,-0.2833,-0.286,-0.2863,-0.2887,-0.287,-0.2872,-0.2884,-0.2882,-0.2883,-0.2923,-0.2889,-0.2927,-0.2948,-0.2935,-0.2937,-0.2939,-0.2921,-0.2921,-0.2929,-0.2929,-0.293,0,-0.2709,-0.2738,-0.2759,-0.2794,-0.2816,-0.2829,-0.286,-0.2879,-0.2902,-0.2909,-0.2894,-0.2909,-0.2901,-0.2921,-0.2932,-0.2934,-0.2918,-0.2921,-0.2941,-0.2942,-0.2943,-0.2924,-0.2923,-0.2932,-0.2932,-0.2931,-0.2931,0,-0.2737,-0.2763,-0.2778,-0.2824,-0.2855,-0.288,-0.2918,-0.2937,-0.2939,-0.2952,-0.297,-0.2962,-0.2965,-0.2971,-0.2962,-0.2974,-0.2958,-0.2948,-0.2919,-0.2948,-0.2927,-0.2925,-0.2935,-0.2934,-0.2934,-0.2933,0,0,-0.2708,-0.2782,-0.2784,-0.2812,-0.287,-0.2896,-0.2938,-0.2978,-0.2997,-0.3011,-0.3029,-0.3038,-0.3021,-0.3021,-0.3011,-0.3003,-0.2996,-0.2979,-0.2977,-0.2953,-0.2962,-0.291,-0.2903,-0.2987,-0.2987,-0.2987,-0.2946,0,-0.2718,-0.2777,-0.2814,-0.2866,-0.2902,-0.2938,-0.2981,-0.3018,-0.3035,-0.3059,-0.3054,-0.3065,-0.3047,-0.3041,-0.3032,-0.3008,-0.2992,-0.3008,-0.2944,-0.2942,-0.2885,-0.2899,-0.2827,-0.278,-0.2944,-0.2943,-0.2943,0,-0.2725,-0.2767,-0.2819,-0.2891,-0.291,-0.2942,-0.2996,-0.3035,-0.3078,-0.309,-0.3098,-0.3096,-0.3094,-0.3067,-0.3032,-0.3042,-0.3001,-0.2978,-0.2975,-0.2907,-0.2886,-0.2777,-0.277,-0.2762,-0.294,-0.294,-0.294,0,-0.2684,-0.2764,-0.2798,-0.2826,-0.2915,-0.2937,-0.2976,-0.3034,-0.3063,-0.3099,-0.3111,-0.3116,-0.3107,-0.3071,-0.3023,-0.3026,-0.2974,-0.2971,-0.2885,-0.2881,-0.2796,-0.2784,-0.2762,-0.2932,-0.2932,-0.2932,-0.2932,0,-0.2674,-0.27,-0.278,-0.2802,-0.2838,-0.2914,-0.2948,-0.2991,-0.305,-0.3073,-0.3109,-0.3113,-0.3105,-0.3079,-0.3031,-0.2949,-0.2975,-0.2884,-0.2866,-0.281,-0.28,-0.2769,-0.2773,-0.2931,-0.2931,-0.2931,-0.2931,0,-0.2612,-0.267,-0.271,-0.2795,-0.2817,-0.2837,-0.2916,-0.2944,-0.3013,-0.3041,-0.3051,-0.3104,-0.3074,-0.3054,-0.2998,-0.2948,-0.2834,-0.2842,-0.2776,-0.2751,-0.2663,-0.2672,-0.2589,-0.2511,-0.2747,-0.2745,-0.2744,0,-0.2583,-0.2598,-0.2671,-0.2686,-0.2716,-0.2763,-0.2795,-0.2893,-0.2928,-0.3019,-0.3022,-0.3038,-0.3023,-0.2947,-0.287,-0.2784,-0.2758,-0.2662,-0.2652,-0.2643,-0.264,-0.2636,-0.2575,-0.256,-0.2557,-0.2555,-0.2553,0,-0.2508,-0.2528,-0.2553,-0.2588,-0.2617,-0.2652,-0.271,-0.2739,-0.285,-0.2891,-0.2933,-0.2941,-0.2908,-0.2811,-0.272,-0.265,-0.2606,-0.2613,-0.2619,-0.2501,-0.2477,-0.2398,-0.261,-0.2534,-0.2535,-0.2537,-0.2538,-0.2539,-0.242,-0.2413,-0.2441,-0.2459,-0.2493,-0.251,-0.2495,-0.2586,-0.2622,-0.2671,-0.2772,-0.2782,-0.2756,-0.2628,-0.2556,-0.2438,-0.2449,-0.2381,-0.2395,-0.2394,-0.2307,-0.2473,-0.2369,-0.237,-0.2371,-0.2372,-0.2372,0,-0.2302,-0.2304,-0.2316,-0.2324,-0.2302,-0.2367,-0.2406,-0.2377,-0.2376,-0.25,-0.2532,-0.2597,-0.2495,-0.2476,-0.2373,-0.2269,-0.2196,-0.221,-0.22,-0.2147,-0.2305,-0.2287,-0.2141,-0.2141,-0.2141,-0.2141,-0.2141,-0.2141,-0.2236,-0.2194,-0.2203,-0.2116,-0.212,-0.2037,-0.2022,-0.2019,-0.2075,-0.2137,-0.2257,-0.2392,-0.2402,-0.2489,-0.2341,-0.2214,-0.2132,-0.2062,-0.2052,-0.2204,-0.2223,-0.224,-0.2225,-0.2069,-0.2068,-0.1841,-0.1839,-0.1838]},{"header":{"parameterUnit":"m.s-1","parameterCategory":2,"la1":30.2991,"la2":30.254,"lo1":-89.0895,"lo2":-89.0444,"dx":0.0017,"dy":0.0017,"nx":28,"ny":28,"refTime":"2022-11-12T09:00:00:Z","depth":"0","parameterNumber":3,"parameterNumberName":"V-component_of_CURRENTS"},"data":[0,0,0,0,0,0,0,0,0,0,0,0,0,0,0,0,0,0,0,0,0,0,0,0,0,0,0,0,0,0,0,0,0,0,0,0,0,0,0,0,0,0,0,0,0,0,0,0,0,0,0,0,0,0,0,0,0,0,-0.0493,-0.0492,0,-0.0391,-0.039,-0.0389,-0.032,-0.032,-0.0319,-0.0319,-0.0182,-0.0179,-0.0176,0,0,0,0,0,0,0,0,0,0,0,0,0,-0.0569,-0.0568,-0.0494,-0.0492,-0.0491,-0.0391,-0.039,-0.0389,-0.032,-0.032,-0.0319,-0.0318,-0.0183,-0.0179,-0.0175,0,0,0,0,0,0,0,0,0,0,0,0,0,-0.0508,-0.0568,-0.0494,-0.0445,-0.044,-0.0392,-0.039,-0.0388,-0.032,-0.032,-0.0319,-0.0318,-0.0184,-0.018,-0.0175,-0.0159,0,0,-0.016,-0.0158,0,0,0,0,0,0,0,0,-0.0512,-0.0505,-0.0453,-0.0448,-0.0442,-0.0368,-0.0366,-0.031,-0.032,-0.0365,-0.0319,-0.0318,-0.0242,-0.0232,-0.0214,-0.0152,-0.0146,-0.016,-0.0157,-0.0155,-0.0153,0,0,0,0,0,0,0,-0.0516,-0.0509,-0.0453,-0.0452,-0.0445,-0.0408,-0.0399,-0.0355,-0.0308,-0.0361,-0.0356,-0.0346,-0.0238,-0.0219,-0.0211,-0.0144,-0.016,-0.0156,-0.0153,-0.0151,-0.0049,-0.005,0,0,0,0,0,0,-0.0533,-0.0513,-0.0456,-0.045,-0.0476,-0.0407,-0.0397,-0.0392,-0.0309,-0.0296,-0.0346,-0.0343,-0.0228,-0.0216,-0.0206,-0.017,-0.0155,-0.015,-0.0147,-0.0049,-0.0049,-0.005,0,0,0,0,0,0,-0.0535,-0.0529,-0.046,-0.0479,-0.0467,-0.0407,-0.0402,-0.0391,-0.0371,-0.0298,-0.0284,-0.0338,-0.0227,-0.0212,-0.0167,-0.0164,-0.0148,-0.0144,-0.0049,-0.0049,-0.005,-0.0106,0,0,0,0,0,0,-0.0538,-0.0531,-0.0536,-0.0481,-0.0467,-0.0439,-0.0402,-0.0389,-0.0365,-0.036,-0.0286,-0.0273,-0.0225,-0.0174,-0.0162,-0.0158,-0.014,-0.0049,-0.0049,-0.0049,-0.0104,-0.0108,-0.0112,0,0,0,0,0,-0.0541,-0.0549,-0.0537,-0.0529,-0.0475,-0.0439,-0.0429,-0.0383,-0.0366,-0.0362,-0.031,-0.0275,-0.0168,-0.0171,-0.0156,-0.015,-0.0049,-0.0049,-0.0049,-0.0102,-0.0107,-0.0112,0,0,0,0,0,0,-0.058,-0.0541,-0.0526,-0.0521,-0.0488,-0.0428,-0.0421,-0.0391,-0.0347,-0.0342,-0.0274,-0.0257,-0.0218,-0.018,-0.0184,-0.0124,-0.0104,-0.0102,-0.0149,-0.0153,-0.0157,-0.0172,-0.0136,0,0,0,0,0,-0.0595,-0.0592,-0.0546,-0.0544,-0.0532,-0.048,-0.0461,-0.0431,-0.0384,-0.0364,-0.0311,-0.0257,-0.0209,-0.0179,-0.0135,-0.0099,-0.0056,-0.0088,-0.0092,-0.0095,-0.0099,-0.0029,-0.0027,-0.0051,-0.0051,-0.0051,0,0,-0.0609,-0.0588,-0.0586,-0.0552,-0.0524,-0.0514,-0.0467,-0.0445,-0.0427,-0.0357,-0.032,-0.0272,-0.0205,-0.0165,-0.0144,-0.013,-0.0068,-0.0096,-0.01,-0.0101,-0.0029,-0.0027,-0.0025,-0.0052,-0.0051,-0.0051,0,0,-0.0642,-0.0621,-0.0633,-0.0608,-0.0573,-0.0543,-0.0542,-0.0488,-0.0455,-0.0417,-0.0361,-0.0309,-0.0242,-0.0185,-0.015,-0.015,-0.0096,-0.0144,-0.0166,-0.0099,-0.0097,-0.0094,-0.0044,-0.0036,-0.014,-0.014,-0.014,0,-0.0661,-0.0668,-0.063,-0.063,-0.0614,-0.0563,-0.0567,-0.0527,-0.0463,-0.0432,-0.0416,-0.0303,-0.0248,-0.0181,-0.0183,-0.0157,-0.0121,-0.0153,-0.0104,-0.01,-0.0096,-0.0046,-0.0036,-0.0143,-0.0142,-0.0142,-0.0142,0,-0.0697,-0.0701,-0.0705,-0.0692,-0.067,-0.0665,-0.0609,-0.0587,-0.0547,-0.0493,-0.0425,-0.0345,-0.0275,-0.0251,-0.0215,-0.0161,-0.0147,-0.0122,-0.0093,-0.0097,-0.0044,-0.0033,-0.0147,-0.0146,-0.0145,-0.0144,0,0,-0.0741,-0.0735,-0.0736,-0.0744,-0.0701,-0.0691,-0.0665,-0.0619,-0.0601,-0.0524,-0.0476,-0.0387,-0.0335,-0.0293,-0.0234,-0.0175,-0.0116,-0.0147,-0.0142,-0.01,0.0017,0.0065,0.0082,-0.0086,-0.0084,-0.0083,0.004,0,-0.0782,-0.0813,-0.0785,-0.0806,-0.0818,-0.0762,-0.0743,-0.0689,-0.063,-0.0572,-0.0462,-0.0397,-0.0351,-0.0317,-0.025,-0.0149,-0.009,-0.0153,0.0017,0.0022,0.0064,0.0096,0.0136,0.0252,0.0051,0.0052,0.0054,0,-0.0824,-0.0841,-0.0875,-0.0874,-0.0871,-0.0869,-0.0833,-0.0802,-0.07,-0.0646,-0.0553,-0.0467,-0.0355,-0.0322,-0.0145,-0.0191,-0.0099,-0.0021,-0.0014,0.0059,0.0091,0.0227,0.028,0.0438,0.0071,0.007,0.0068,0,-0.0886,-0.0901,-0.0937,-0.0932,-0.0919,-0.0917,-0.0901,-0.0826,-0.0795,-0.0681,-0.0642,-0.0498,-0.0415,-0.0283,-0.0115,-0.0131,0.0076,0.0083,0.0214,0.0218,0.0301,0.031,0.0529,0.0203,0.0203,0.0202,0.0202,0,-0.0942,-0.0969,-0.0973,-0.0992,-0.1029,-0.098,-0.0987,-0.0945,-0.0864,-0.082,-0.0682,-0.0613,-0.0403,-0.0255,-0.012,0.0091,0.0084,0.022,0.0262,0.0281,0.0286,0.0467,0.0522,0.0207,0.0206,0.0205,0.0204,0,-0.1005,-0.1008,-0.1053,-0.1059,-0.1064,-0.1085,-0.106,-0.1056,-0.0968,-0.0906,-0.0867,-0.0681,-0.0476,-0.0267,-0.0028,0.0095,0.0391,0.0354,0.0356,0.0396,0.065,0.0698,0.0959,0.1046,0.0514,0.0516,0.0518,0,-0.1041,-0.1073,-0.1114,-0.115,-0.1158,-0.1175,-0.1188,-0.1117,-0.1096,-0.0946,-0.0917,-0.0701,-0.0531,-0.0156,0.0112,0.0386,0.0501,0.0567,0.0551,0.0688,0.0773,0.0813,0.0869,0.0637,0.064,0.0642,0.0643,0,-0.1106,-0.112,-0.1159,-0.1241,-0.1275,-0.1305,-0.1304,-0.1302,-0.1198,-0.1122,-0.0975,-0.0821,-0.0426,-0.0064,0.0306,0.0459,0.0695,0.0618,0.0777,0.0907,0.095,0.1045,0.0515,0.0662,0.066,0.0659,0.0658,0.0657,-0.1144,-0.1196,-0.1254,-0.1327,-0.1374,-0.1413,-0.1429,-0.1398,-0.1348,-0.1204,-0.1038,-0.0773,-0.0227,0.0316,0.051,0.0924,0.0868,0.1028,0.1079,0.1111,0.1193,0.0693,0.0875,0.0874,0.0873,0.0873,0.0873,0,-0.1192,-0.1253,-0.1335,-0.1417,-0.148,-0.148,-0.1492,-0.1476,-0.1415,-0.1234,-0.1053,-0.0453,0.0084,0.0573,0.1182,0.1384,0.1419,0.147,0.1544,0.158,0.1168,0.1171,0.1404,0.1404,0.1404,0.1404,0.1403,0.1403,-0.1218,-0.1313,-0.1362,-0.1485,-0.1537,-0.1588,-0.1591,-0.1541,-0.142,-0.111,-0.0774,-0.0511,0.0251,0.1268,0.1821,0.1837,0.1999,0.1976,0.206,0.1776,0.1738,0.1702,0.1722,0.2066,0.2067,0.2463,0.2467,0.247]}],[{"header":{"parameterUnit":"m.s-1","parameterCategory":2,"la1":30.2991,"la2":30.254,"lo1":-89.0895,"lo2":-89.0444,"dx":0.0017,"dy":0.0017,"nx":28,"ny":28,"refTime":"2022-11-12T09:00:00:Z","depth":"2","parameterNumber":2,"parameterNumberName":"U-component_of_CURRENTS"},"data":[0,0,0,0,0,0,0,0,0,0,0,0,0,0,0,0,0,0,0,0,0,0,0,0,0,0,0,0,0,0,0,0,0,0,0,0,0,0,0,0,0,0,0,0,0,0,0,0,0,0,0,0,0,0,0,0,0,0,-0.2639,-0.2639,0,-0.2667,-0.2667,-0.2667,-0.2639,-0.2638,-0.2637,-0.2636,-0.261,-0.261,-0.261,0,0,0,0,0,0,0,0,0,0,0,0,0,-0.257,-0.2571,-0.2639,-0.2639,-0.264,-0.2667,-0.2667,-0.2667,-0.2639,-0.2638,-0.2637,-0.2636,-0.261,-0.261,-0.261,0,0,0,0,0,0,0,0,0,0,0,0,0,-0.2596,-0.2571,-0.2639,-0.2631,-0.2631,-0.2667,-0.2667,-0.2667,-0.2639,-0.2638,-0.2637,-0.2636,-0.261,-0.261,-0.261,-0.2637,0,0,-0.2611,-0.2611,0,0,0,0,0,0,0,0,-0.2595,-0.2599,-0.2632,-0.2632,-0.2632,-0.265,-0.2633,-0.2655,-0.264,-0.2634,-0.2636,-0.2635,-0.2621,-0.262,-0.2626,-0.2636,-0.2635,-0.2611,-0.2611,-0.2611,-0.2611,0,0,0,0,0,0,0,-0.2593,-0.2597,-0.2647,-0.2632,-0.2632,-0.2629,-0.2631,-0.2637,-0.2631,-0.2634,-0.2633,-0.264,-0.262,-0.2626,-0.2625,-0.2635,-0.2611,-0.2611,-0.2611,-0.2611,-0.2662,-0.2663,0,0,0,0,0,0,-0.2596,-0.2596,-0.2646,-0.2648,-0.2613,-0.2632,-0.2634,-0.2644,-0.2632,-0.2631,-0.2641,-0.2639,-0.2626,-0.2625,-0.2624,-0.2651,-0.2611,-0.2611,-0.2611,-0.2661,-0.2662,-0.2664,0,0,0,0,0,0,-0.2595,-0.26,-0.2645,-0.2624,-0.263,-0.2635,-0.2645,-0.2645,-0.2647,-0.2639,-0.2635,-0.2644,-0.2625,-0.2623,-0.2633,-0.2649,-0.2611,-0.2611,-0.2659,-0.2661,-0.2663,-0.2707,0,0,0,0,0,0,-0.2592,-0.26,-0.2606,-0.2625,-0.2632,-0.2671,-0.2647,-0.2646,-0.2655,-0.2652,-0.2641,-0.2637,-0.2624,-0.2633,-0.2633,-0.2649,-0.2612,-0.2658,-0.266,-0.2663,-0.2704,-0.2711,-0.2716,0,0,0,0,0,-0.259,-0.2603,-0.2606,-0.2612,-0.264,-0.2673,-0.2676,-0.2672,-0.2657,-0.2667,-0.2658,-0.2637,-0.2648,-0.2634,-0.2634,-0.265,-0.2657,-0.266,-0.2662,-0.2702,-0.2709,-0.2716,0,0,0,0,0,0,-0.2576,-0.2603,-0.2605,-0.2626,-0.2651,-0.2669,-0.2677,-0.2677,-0.268,-0.2669,-0.2654,-0.2651,-0.2665,-0.2657,-0.2643,-0.2673,-0.2649,-0.2652,-0.2679,-0.2686,-0.2692,-0.2685,-0.2612,0,0,0,0,0,-0.2578,-0.259,-0.2623,-0.2637,-0.2652,-0.2665,-0.2676,-0.2677,-0.2685,-0.2684,-0.268,-0.2675,-0.268,-0.2681,-0.2683,-0.2703,-0.2682,-0.2714,-0.272,-0.2725,-0.2721,-0.2708,-0.2712,-0.2673,-0.2673,-0.2673,0,0,-0.2575,-0.2592,-0.2598,-0.2635,-0.2649,-0.268,-0.2668,-0.2687,-0.2708,-0.2682,-0.27,-0.2695,-0.2691,-0.271,-0.2715,-0.2702,-0.2727,-0.2728,-0.2732,-0.2726,-0.2712,-0.2715,-0.2718,-0.2675,-0.2675,-0.2674,0,0,-0.2582,-0.2595,-0.2612,-0.264,-0.2671,-0.2684,-0.2693,-0.2719,-0.2724,-0.2749,-0.2733,-0.2737,-0.275,-0.2749,-0.275,-0.2791,-0.2758,-0.2796,-0.2819,-0.2808,-0.281,-0.2812,-0.2796,-0.2796,-0.2798,-0.2799,-0.2799,0,-0.2578,-0.2604,-0.2623,-0.2655,-0.2677,-0.269,-0.272,-0.2739,-0.2762,-0.277,-0.2758,-0.2775,-0.2768,-0.2789,-0.2801,-0.2803,-0.2788,-0.2791,-0.2813,-0.2815,-0.2816,-0.2798,-0.2798,-0.2801,-0.2801,-0.28,-0.28,0,-0.2604,-0.2629,-0.2644,-0.2686,-0.2715,-0.274,-0.2777,-0.2797,-0.2801,-0.2815,-0.2835,-0.283,-0.2834,-0.2841,-0.2832,-0.2847,-0.2831,-0.282,-0.2791,-0.2822,-0.2802,-0.2801,-0.2805,-0.2804,-0.2803,-0.2802,0,0,-0.2579,-0.2647,-0.2649,-0.2676,-0.2731,-0.2755,-0.2799,-0.2838,-0.2858,-0.2875,-0.2895,-0.2906,-0.2892,-0.2892,-0.2884,-0.2877,-0.2875,-0.2855,-0.2853,-0.283,-0.2845,-0.2792,-0.2786,-0.2866,-0.2866,-0.2866,-0.2829,0,-0.2589,-0.2644,-0.2678,-0.2728,-0.2762,-0.2798,-0.284,-0.2877,-0.2897,-0.2922,-0.292,-0.2933,-0.2917,-0.2914,-0.2908,-0.2886,-0.2873,-0.2885,-0.2825,-0.2823,-0.2766,-0.2783,-0.2575,-0.2521,-0.2827,-0.2827,-0.2827,0,-0.2597,-0.2635,-0.2684,-0.2752,-0.277,-0.2803,-0.2857,-0.2896,-0.2941,-0.2955,-0.2966,-0.2965,-0.2968,-0.2942,-0.2913,-0.2922,-0.2883,-0.2861,-0.2859,-0.279,-0.2767,-0.254,-0.2506,-0.2824,-0.2824,-0.2824,-0.2825,0,-0.2558,-0.2633,-0.2665,-0.2692,-0.2776,-0.28,-0.2838,-0.2897,-0.2926,-0.2966,-0.298,-0.2989,-0.2983,-0.2951,-0.2907,-0.2909,-0.2863,-0.2859,-0.2775,-0.277,-0.2571,-0.2549,-0.2823,-0.2823,-0.2823,-0.2824,-0.2824,0,-0.2548,-0.2573,-0.2649,-0.2669,-0.2705,-0.2779,-0.2814,-0.2858,-0.2918,-0.2941,-0.2981,-0.2986,-0.2982,-0.296,-0.2915,-0.2838,-0.2865,-0.2774,-0.2756,-0.2582,-0.2563,-0.2807,-0.2805,-0.2822,-0.2822,-0.2823,-0.2823,0,-0.249,-0.2545,-0.2582,-0.2664,-0.2685,-0.2706,-0.2785,-0.2813,-0.2884,-0.2912,-0.2924,-0.298,-0.2954,-0.2937,-0.2887,-0.2838,-0.2777,-0.2737,-0.2536,-0.2495,-0.2692,-0.2693,-0.2648,-0.2645,-0.2643,-0.2642,-0.2641,0,-0.2462,-0.2476,-0.2546,-0.256,-0.259,-0.2637,-0.2668,-0.2766,-0.2799,-0.2891,-0.2894,-0.2914,-0.2898,-0.2829,-0.2733,-0.2646,-0.2715,-0.242,-0.2389,-0.2686,-0.2673,-0.2678,-0.2682,-0.214,-0.2135,-0.2131,-0.2127,0,-0.239,-0.241,-0.2433,-0.2467,-0.2495,-0.2528,-0.2585,-0.2612,-0.2721,-0.276,-0.2801,-0.2807,-0.2759,-0.2585,-0.2491,-0.2411,-0.2424,-0.2331,-0.2668,-0.2233,-0.2209,-0.2197,-0.2216,-0.2088,-0.2092,-0.2095,-0.2097,-0.2099,-0.2306,-0.2299,-0.2325,-0.2343,-0.2376,-0.239,-0.2372,-0.2451,-0.2481,-0.2495,-0.2608,-0.254,-0.2507,-0.2263,-0.2137,-0.2033,-0.2202,-0.2098,-0.211,-0.2127,-0.2091,-0.2067,-0.1912,-0.1915,-0.1917,-0.1919,-0.1921,0,-0.219,-0.2193,-0.2204,-0.2211,-0.2184,-0.2252,-0.2285,-0.223,-0.2212,-0.2266,-0.227,-0.2031,-0.1927,-0.1898,-0.1684,-0.1649,-0.1614,-0.1579,-0.1528,-0.1568,-0.1603,-0.154,-0.1215,-0.1213,-0.1211,-0.1209,0,0,-0.2125,-0.2081,-0.2088,-0.1999,-0.2006,-0.1914,-0.1896,-0.1845,-0.1838,-0.1753,-0.1721,-0.1839,-0.1874,-0.1546,-0.1462,-0.1313,-0.1426,-0.1246,-0.1815,-0.1797,-0.183,-0.1907,-0.1856,0,0,0,0,0]},{"header":{"parameterUnit":"m.s-1","parameterCategory":2,"la1":30.2991,"la2":30.254,"lo1":-89.0895,"lo2":-89.0444,"dx":0.0017,"dy":0.0017,"nx":28,"ny":28,"refTime":"2022-11-12T09:00:00:Z","depth":"2","parameterNumber":3,"parameterNumberName":"V-component_of_CURRENTS"},"data":[0,0,0,0,0,0,0,0,0,0,0,0,0,0,0,0,0,0,0,0,0,0,0,0,0,0,0,0,0,0,0,0,0,0,0,0,0,0,0,0,0,0,0,0,0,0,0,0,0,0,0,0,0,0,0,0,0,0,-0.0415,-0.0414,0,-0.0315,-0.0314,-0.0312,-0.0247,-0.0247,-0.0246,-0.0246,-0.0112,-0.0109,-0.0106,0,0,0,0,0,0,0,0,0,0,0,0,0,-0.0491,-0.049,-0.0416,-0.0414,-0.0413,-0.0315,-0.0314,-0.0312,-0.0247,-0.0247,-0.0246,-0.0246,-0.0114,-0.011,-0.0106,0,0,0,0,0,0,0,0,0,0,0,0,0,-0.0431,-0.049,-0.0416,-0.0369,-0.0364,-0.0315,-0.0314,-0.0312,-0.0247,-0.0247,-0.0246,-0.0245,-0.0115,-0.011,-0.0105,-0.0087,0,0,-0.0091,-0.0089,0,0,0,0,0,0,0,0,-0.0434,-0.0428,-0.0377,-0.0372,-0.0366,-0.0293,-0.0291,-0.0235,-0.0247,-0.0291,-0.0246,-0.0245,-0.0171,-0.0161,-0.0143,-0.0081,-0.0075,-0.009,-0.0087,-0.0085,-0.0084,0,0,0,0,0,0,0,-0.0439,-0.0432,-0.0375,-0.0376,-0.0369,-0.0332,-0.0324,-0.028,-0.0234,-0.0287,-0.0282,-0.0272,-0.0167,-0.0148,-0.014,-0.0073,-0.009,-0.0086,-0.0083,-0.0081,0.002,0.0019,0,0,0,0,0,0,-0.0456,-0.0436,-0.0378,-0.0372,-0.04,-0.0332,-0.0322,-0.0317,-0.0235,-0.0223,-0.0273,-0.0269,-0.0157,-0.0145,-0.0135,-0.0102,-0.0085,-0.0081,-0.0078,0.002,0.002,0.0019,0,0,0,0,0,0,-0.0458,-0.0452,-0.0382,-0.0402,-0.039,-0.0332,-0.0326,-0.0315,-0.0297,-0.0225,-0.0211,-0.0265,-0.0156,-0.0141,-0.0097,-0.0097,-0.0079,-0.0074,0.002,0.002,0.002,-0.0041,0,0,0,0,0,0,-0.0461,-0.0453,-0.0458,-0.0403,-0.039,-0.0362,-0.0326,-0.0314,-0.0291,-0.0286,-0.0214,-0.0201,-0.0154,-0.0104,-0.0092,-0.009,-0.0071,0.002,0.002,0.002,-0.0038,-0.0043,-0.0047,0,0,0,0,0,-0.0464,-0.0471,-0.0459,-0.0452,-0.0398,-0.0362,-0.0353,-0.0308,-0.0292,-0.0288,-0.0237,-0.0203,-0.0098,-0.01,-0.0086,-0.0082,0.0021,0.002,0.002,-0.0037,-0.0042,-0.0047,0,0,0,0,0,0,-0.0503,-0.0464,-0.0449,-0.0444,-0.0411,-0.0352,-0.0345,-0.0316,-0.0273,-0.0269,-0.0202,-0.0185,-0.0148,-0.0109,-0.0114,-0.0056,-0.0035,-0.0032,-0.0082,-0.0087,-0.0091,-0.0106,-0.0067,0,0,0,0,0,-0.0517,-0.0515,-0.0469,-0.0466,-0.0454,-0.0404,-0.0385,-0.0356,-0.031,-0.0291,-0.0239,-0.0186,-0.0139,-0.0109,-0.0066,-0.0031,0.0012,-0.0021,-0.0025,-0.0029,-0.0032,0.0035,0.0037,0.0018,0.0018,0.0018,0,0,-0.0532,-0.051,-0.0509,-0.0475,-0.0448,-0.0438,-0.0391,-0.037,-0.0354,-0.0283,-0.0249,-0.0201,-0.0135,-0.0096,-0.0076,-0.0062,-0.0003,-0.003,-0.0033,-0.0034,0.0035,0.0037,0.0038,0.0018,0.0018,0.0018,0,0,-0.0565,-0.0544,-0.0557,-0.0532,-0.0498,-0.0468,-0.0467,-0.0414,-0.0383,-0.0345,-0.0291,-0.024,-0.0174,-0.0119,-0.0084,-0.0085,-0.0032,-0.0079,-0.0104,-0.0039,-0.0037,-0.0034,0.0015,0.0022,-0.0076,-0.0076,-0.0076,0,-0.0586,-0.0592,-0.0554,-0.0554,-0.0539,-0.0488,-0.0493,-0.0455,-0.0392,-0.0363,-0.0346,-0.0235,-0.0181,-0.0118,-0.012,-0.0093,-0.0057,-0.009,-0.0044,-0.0041,-0.0037,0.0013,0.0022,-0.0079,-0.0078,-0.0078,-0.0078,0,-0.0622,-0.0627,-0.0631,-0.0619,-0.0597,-0.0593,-0.0539,-0.0518,-0.0479,-0.0426,-0.0361,-0.0282,-0.0213,-0.019,-0.0154,-0.0103,-0.0087,-0.0062,-0.0033,-0.0039,0.0014,0.0024,-0.0083,-0.0082,-0.0081,-0.008,0,0,-0.0668,-0.0661,-0.0663,-0.0672,-0.063,-0.062,-0.0597,-0.0553,-0.0536,-0.0461,-0.0416,-0.0329,-0.0278,-0.0236,-0.0177,-0.0121,-0.0065,-0.009,-0.0086,-0.0045,0.0065,0.0108,0.0124,-0.0035,-0.0033,-0.0032,0.0089,0,-0.071,-0.0742,-0.0714,-0.0737,-0.075,-0.0694,-0.0677,-0.0625,-0.0568,-0.0512,-0.0406,-0.0342,-0.0295,-0.0262,-0.0198,-0.0096,-0.004,-0.0101,0.0068,0.0073,0.0109,0.0137,0.0097,0.0204,0.0099,0.0101,0.0102,0,-0.0754,-0.0771,-0.0807,-0.0806,-0.0804,-0.0803,-0.0769,-0.0741,-0.0643,-0.0589,-0.0499,-0.0414,-0.0306,-0.0272,-0.0098,-0.0142,-0.005,0.0027,0.0034,0.0103,0.0136,0.0196,0.0227,0.012,0.0119,0.0118,0.0116,0,-0.0817,-0.0833,-0.087,-0.0865,-0.0853,-0.0853,-0.0838,-0.0766,-0.0736,-0.0626,-0.0589,-0.0448,-0.0368,-0.0237,-0.0071,-0.0085,0.0118,0.0126,0.0252,0.0255,0.027,0.0273,0.0244,0.0243,0.0243,0.0243,0.0242,0,-0.0873,-0.0901,-0.0906,-0.0925,-0.0964,-0.0916,-0.0925,-0.0885,-0.0807,-0.0766,-0.063,-0.0565,-0.0357,-0.0212,-0.0077,0.0129,0.0123,0.0256,0.0297,0.0247,0.0247,0.0212,0.0207,0.0247,0.0246,0.0245,0.0245,0,-0.0938,-0.0941,-0.0986,-0.0993,-0.0999,-0.102,-0.0998,-0.0994,-0.091,-0.0852,-0.0814,-0.0634,-0.0434,-0.0227,0.0008,0.013,0.0313,0.0383,0.0306,0.0337,0.0402,0.0392,0.0532,0.0535,0.0537,0.0539,0.054,0,-0.0974,-0.1005,-0.1047,-0.1084,-0.1091,-0.1111,-0.1124,-0.1055,-0.1035,-0.0893,-0.0866,-0.0657,-0.0493,-0.0127,0.0125,0.0391,0.0387,0.0503,0.0477,0.041,0.0436,0.0422,0.041,0.0468,0.0469,0.047,0.0471,0,-0.1038,-0.1053,-0.1092,-0.1174,-0.1208,-0.1238,-0.1239,-0.1238,-0.1137,-0.1066,-0.0927,-0.078,-0.0408,-0.0098,0.026,0.0399,0.0458,0.0527,0.05,0.04,0.036,0.0382,0.037,0.0477,0.0476,0.0476,0.0475,0.0475,-0.1078,-0.1129,-0.1187,-0.1259,-0.1306,-0.1345,-0.1363,-0.1331,-0.1285,-0.1144,-0.0992,-0.0743,-0.0419,0.0087,0.0339,0.056,0.055,0.06,0.0594,0.0587,0.0557,0.0524,0.0665,0.0665,0.0665,0.0666,0.0666,0,-0.1124,-0.1186,-0.1267,-0.1348,-0.1408,-0.1412,-0.1425,-0.1398,-0.1339,-0.1171,-0.0999,-0.0635,-0.0264,0.0064,0.0427,0.0651,0.0612,0.0676,0.0587,0.058,0.0574,0.0539,0.0644,0.0645,0.0645,0.0646,0,0,-0.115,-0.1242,-0.129,-0.141,-0.1465,-0.1511,-0.1514,-0.1446,-0.1325,-0.1147,-0.0953,-0.0676,-0.0259,-0.0003,0.0286,0.0479,0.046,0.0483,0.0475,0.0329,0.032,0.0507,0.0444,0,0,0,0,0]}],[{"header":{"parameterUnit":"m.s-1","parameterCategory":2,"la1":30.2991,"la2":30.254,"lo1":-89.0895,"lo2":-89.0444,"dx":0.0017,"dy":0.0017,"nx":28,"ny":28,"refTime":"2022-11-12T09:00:00:Z","depth":"4","parameterNumber":2,"parameterNumberName":"U-component_of_CURRENTS"},"data":[0,0,0,0,0,0,0,0,0,0,0,0,0,0,0,0,0,0,0,0,0,0,0,0,0,0,0,0,0,0,0,0,0,0,0,0,0,0,0,0,0,0,0,0,0,0,0,0,0,0,0,0,0,0,0,0,0,0,-0.1824,-0.1824,0,-0.1886,-0.1887,-0.1887,-0.1926,-0.1926,-0.1926,-0.1927,-0.199,-0.1991,-0.1993,0,0,0,0,0,0,0,0,0,0,0,0,0,-0.1743,-0.1744,-0.1823,-0.1824,-0.1825,-0.1886,-0.1887,-0.1888,-0.1926,-0.1926,-0.1926,-0.1927,-0.1989,-0.1991,-0.1993,0,0,0,0,0,0,0,0,0,0,0,0,0,-0.1787,-0.1744,-0.1823,-0.1853,-0.1856,-0.1886,-0.1887,-0.1888,-0.1926,-0.1926,-0.1926,-0.1927,-0.1989,-0.1991,-0.1993,-0.1996,0,0,-0.1999,-0.2,0,0,0,0,0,0,0,0,-0.1785,-0.179,-0.1847,-0.1851,-0.1855,-0.19,-0.1882,-0.1924,-0.1925,-0.1898,-0.1927,-0.1927,-0.196,-0.1965,-0.1973,-0.1999,-0.2002,-0.1999,-0.2001,-0.2002,-0.2002,0,0,0,0,0,0,0,-0.1782,-0.1788,-0.1847,-0.1848,-0.1853,-0.1865,-0.1872,-0.189,-0.1924,-0.19,-0.1903,-0.1912,-0.1962,-0.1971,-0.1975,-0.2003,-0.1999,-0.2001,-0.2002,-0.2003,-0.2115,-0.2117,0,0,0,0,0,0,-0.1776,-0.1785,-0.1845,-0.1849,-0.1822,-0.1866,-0.1873,-0.1884,-0.1924,-0.1931,-0.1912,-0.1914,-0.1968,-0.1973,-0.1978,-0.2061,-0.2002,-0.2003,-0.2005,-0.2113,-0.2115,-0.2117,0,0,0,0,0,0,-0.1774,-0.1781,-0.1842,-0.1819,-0.1828,-0.1867,-0.1878,-0.1885,-0.1924,-0.1934,-0.1941,-0.1948,-0.1968,-0.1975,-0.2024,-0.2061,-0.2004,-0.2006,-0.2111,-0.2114,-0.2116,-0.2178,0,0,0,0,0,0,-0.1772,-0.178,-0.1801,-0.1819,-0.1829,-0.1883,-0.1878,-0.1886,-0.1928,-0.1932,-0.1966,-0.1971,-0.1969,-0.2021,-0.2026,-0.2063,-0.2008,-0.2109,-0.2112,-0.2115,-0.2174,-0.2183,-0.219,0,0,0,0,0,-0.1768,-0.1789,-0.1802,-0.181,-0.1852,-0.1884,-0.1892,-0.1919,-0.1929,-0.1955,-0.198,-0.1972,-0.2045,-0.2025,-0.203,-0.2068,-0.2107,-0.2111,-0.2115,-0.2171,-0.2181,-0.219,0,0,0,0,0,0,-0.1769,-0.1796,-0.181,-0.184,-0.1872,-0.1892,-0.192,-0.1937,-0.1977,-0.1988,-0.1994,-0.2001,-0.2056,-0.2056,-0.2033,-0.211,-0.2075,-0.208,-0.2115,-0.2125,-0.2133,-0.2123,-0.201,0,0,0,0,0,-0.1777,-0.1801,-0.1829,-0.1858,-0.1875,-0.1904,-0.1927,-0.1946,-0.1975,-0.1994,-0.2021,-0.2047,-0.2071,-0.2094,-0.2113,-0.2159,-0.2136,-0.2187,-0.2195,-0.2201,-0.2198,-0.2194,-0.2201,-0.213,-0.213,-0.213,0,0,-0.1787,-0.1805,-0.1821,-0.186,-0.1886,-0.1921,-0.192,-0.1963,-0.2,-0.1994,-0.2063,-0.2078,-0.2089,-0.2139,-0.2164,-0.2147,-0.2213,-0.2206,-0.2212,-0.2204,-0.2199,-0.2206,-0.2211,-0.2133,-0.2132,-0.2132,0,0,-0.1805,-0.1834,-0.1858,-0.1889,-0.1934,-0.1952,-0.1972,-0.2014,-0.2046,-0.2104,-0.2108,-0.2145,-0.2194,-0.2206,-0.2216,-0.228,-0.2253,-0.2296,-0.2334,-0.2331,-0.2336,-0.2341,-0.2327,-0.2329,-0.2303,-0.2304,-0.2304,0,-0.182,-0.1849,-0.1873,-0.1906,-0.1936,-0.197,-0.2007,-0.2044,-0.2102,-0.2129,-0.2138,-0.2207,-0.2221,-0.2265,-0.2291,-0.2298,-0.2287,-0.2295,-0.234,-0.2343,-0.2347,-0.2331,-0.2333,-0.2307,-0.2307,-0.2306,-0.2306,0,-0.1845,-0.1886,-0.1905,-0.1955,-0.1994,-0.2031,-0.208,-0.213,-0.2171,-0.2201,-0.2266,-0.2286,-0.232,-0.234,-0.2338,-0.2378,-0.236,-0.2346,-0.231,-0.2357,-0.2338,-0.2339,-0.2312,-0.2311,-0.231,-0.2309,0,0,-0.1827,-0.1907,-0.1917,-0.1951,-0.2022,-0.2052,-0.2124,-0.2185,-0.2231,-0.2289,-0.2339,-0.2389,-0.2397,-0.2408,-0.2414,-0.242,-0.244,-0.2402,-0.24,-0.2379,-0.243,-0.2282,-0.2268,-0.2436,-0.2437,-0.2437,-0.2409,0,-0.1841,-0.1903,-0.1943,-0.2015,-0.205,-0.211,-0.2174,-0.2238,-0.2291,-0.235,-0.2379,-0.2427,-0.2424,-0.2446,-0.2454,-0.2446,-0.2445,-0.2449,-0.2395,-0.2393,-0.2248,-0.2264,-0.2439,-0.2409,-0.2409,-0.2409,-0.2409,0,-0.1841,-0.1886,-0.1953,-0.2044,-0.2067,-0.2123,-0.2216,-0.2276,-0.2361,-0.2401,-0.2447,-0.2469,-0.2505,-0.2487,-0.2488,-0.2493,-0.2466,-0.245,-0.2448,-0.2284,-0.2245,-0.2352,-0.241,-0.241,-0.241,-0.241,-0.241,0,-0.1791,-0.1888,-0.1941,-0.1974,-0.2084,-0.2137,-0.22,-0.2294,-0.2344,-0.243,-0.2462,-0.2508,-0.2529,-0.2515,-0.249,-0.2496,-0.2468,-0.2466,-0.2303,-0.2293,-0.2408,-0.2404,-0.2447,-0.2447,-0.2448,-0.2448,-0.2448,0,-0.1763,-0.1811,-0.1931,-0.1959,-0.2032,-0.2123,-0.2201,-0.2271,-0.2365,-0.2402,-0.248,-0.2492,-0.2538,-0.2528,-0.2498,-0.2391,-0.247,-0.2299,-0.2271,-0.2437,-0.2436,-0.2408,-0.2404,-0.2446,-0.2447,-0.2447,-0.2447,0,-0.1686,-0.1768,-0.1835,-0.1964,-0.2008,-0.206,-0.2188,-0.2233,-0.234,-0.2386,-0.2413,-0.2491,-0.2473,-0.2485,-0.2459,-0.2378,-0.2307,-0.2248,-0.242,-0.2404,-0.2136,-0.2136,-0.2064,-0.2059,-0.2054,-0.205,-0.2047,0,-0.1644,-0.1674,-0.1813,-0.1853,-0.1916,-0.2009,-0.2064,-0.2197,-0.2234,-0.2349,-0.2346,-0.2389,-0.2411,-0.2252,-0.2289,-0.2213,-0.2184,-0.2137,-0.2139,-0.2114,-0.2095,-0.2103,-0.2109,-0.2039,-0.2038,-0.2037,-0.2036,0,-0.1556,-0.1622,-0.1673,-0.1756,-0.1828,-0.1888,-0.1977,-0.1991,-0.2121,-0.2243,-0.2213,-0.2191,-0.2168,-0.2141,-0.2094,-0.2041,-0.2165,-0.2088,-0.2097,-0.2098,-0.2083,-0.207,-0.2082,-0.2019,-0.2022,-0.2023,-0.2024,0,-0.1483,-0.1497,-0.1573,-0.1626,-0.1711,-0.1728,-0.1799,-0.1836,-0.189,-0.2032,-0.2011,-0.2056,-0.214,-0.2048,-0.2002,-0.1943,-0.1917,-0.1852,-0.1874,-0.1893,-0.1848,-0.1805,-0.1617,0,0,0,0,0,-0.1397,-0.1393,-0.1436,-0.1483,-0.156,-0.16,-0.1717,-0.1791,-0.1923,-0.1851,-0.1929,-0.1896,-0.1841,-0.187,-0.1768,-0.1916,-0.192,-0.1791,-0.1857,-0.1928,-0.1947,-0.1909,0,0,0,0,0,0,-0.1339,-0.137,-0.1381,-0.1341,-0.1346,-0.1405,-0.1467,-0.1563,-0.154,-0.1685,-0.1664,-0.1773,-0.1747,-0.1858,-0.1724,-0.1731,-0.1732,-0.1836,-0.1831,-0.1917,-0.1935,-0.195,-0.1918,0,0,0,0,0]},{"header":{"parameterUnit":"m.s-1","parameterCategory":2,"la1":30.2991,"la2":30.254,"lo1":-89.0895,"lo2":-89.0444,"dx":0.0017,"dy":0.0017,"nx":28,"ny":28,"refTime":"2022-11-12T09:00:00:Z","depth":"4","parameterNumber":3,"parameterNumberName":"V-component_of_CURRENTS"},"data":[0,0,0,0,0,0,0,0,0,0,0,0,0,0,0,0,0,0,0,0,0,0,0,0,0,0,0,0,0,0,0,0,0,0,0,0,0,0,0,0,0,0,0,0,0,0,0,0,0,0,0,0,0,0,0,0,0,0,-0.0231,-0.023,0,-0.0162,-0.0161,-0.016,-0.0118,-0.0118,-0.0118,-0.0118,-0.0014,-0.0012,-0.0009,0,0,0,0,0,0,0,0,0,0,0,0,0,-0.028,-0.0279,-0.0231,-0.023,-0.023,-0.0162,-0.0161,-0.016,-0.0118,-0.0118,-0.0118,-0.0118,-0.0015,-0.0012,-0.0009,0,0,0,0,0,0,0,0,0,0,0,0,0,-0.0239,-0.0279,-0.0231,-0.0201,-0.0198,-0.0162,-0.0161,-0.016,-0.0118,-0.0118,-0.0118,-0.0118,-0.0016,-0.0012,-0.0008,0.0011,0,0,0.0004,0.0005,0,0,0,0,0,0,0,0,-0.0241,-0.0237,-0.0206,-0.0203,-0.0199,-0.0149,-0.014,-0.0101,-0.0118,-0.0148,-0.0118,-0.0118,-0.0057,-0.0049,-0.0037,0.0016,0.0021,0.0004,0.0006,0.0008,0.0009,0,0,0,0,0,0,0,-0.0244,-0.024,-0.0203,-0.0205,-0.0201,-0.0175,-0.0169,-0.0132,-0.0103,-0.0145,-0.0142,-0.0135,-0.0054,-0.004,-0.0034,0.0022,0.0004,0.0007,0.001,0.0011,0.0094,0.0094,0,0,0,0,0,0,-0.0257,-0.0243,-0.0205,-0.0201,-0.0221,-0.0174,-0.0168,-0.0165,-0.0104,-0.0095,-0.0136,-0.0134,-0.0047,-0.0038,-0.003,-0.0012,0.0008,0.0012,0.0014,0.0094,0.0094,0.0094,0,0,0,0,0,0,-0.0258,-0.0254,-0.0208,-0.022,-0.0213,-0.0174,-0.0171,-0.0164,-0.0154,-0.0098,-0.0088,-0.0134,-0.0047,-0.0035,-0.0001,-0.0007,0.0013,0.0017,0.0094,0.0094,0.0094,0.0029,0,0,0,0,0,0,-0.026,-0.0255,-0.0262,-0.0222,-0.0213,-0.0196,-0.0171,-0.0163,-0.015,-0.0147,-0.0093,-0.0083,-0.0046,-0.0007,0.0003,-0.0002,0.002,0.0094,0.0094,0.0094,0.0032,0.0027,0.0023,0,0,0,0,0,-0.0262,-0.0269,-0.0263,-0.0258,-0.0222,-0.0197,-0.019,-0.0161,-0.0151,-0.0151,-0.0111,-0.0085,-0.0002,-0.0004,0.0008,0.0004,0.0095,0.0094,0.0094,0.0034,0.0028,0.0023,0,0,0,0,0,0,-0.0291,-0.0264,-0.0256,-0.0255,-0.0234,-0.019,-0.0189,-0.0168,-0.0138,-0.0137,-0.0083,-0.007,-0.0044,-0.001,-0.0014,0.0027,0.0049,0.0051,-0.0,-0.0005,-0.001,-0.0023,0.0023,0,0,0,0,0,-0.0303,-0.0305,-0.0272,-0.0274,-0.0266,-0.0231,-0.0219,-0.02,-0.0166,-0.0153,-0.0114,-0.0072,-0.0036,-0.0014,0.0021,0.0047,0.0086,0.0051,0.0047,0.0043,0.004,0.0096,0.0096,0.0092,0.0092,0.0092,0,0,-0.0316,-0.0301,-0.0303,-0.0281,-0.0263,-0.0262,-0.0224,-0.0213,-0.0207,-0.0146,-0.0128,-0.0087,-0.0033,-0.0007,0.0008,0.0021,0.0064,0.0042,0.0039,0.0038,0.0096,0.0096,0.0096,0.0092,0.0092,0.0092,0,0,-0.0345,-0.0331,-0.0346,-0.033,-0.031,-0.0289,-0.0291,-0.0254,-0.0234,-0.021,-0.0166,-0.0127,-0.0075,-0.0034,-0.0007,-0.0012,0.0036,-0.0006,-0.0034,0.0019,0.002,0.0021,0.0065,0.0071,-0.0005,-0.0005,-0.0005,0,-0.0364,-0.0375,-0.0345,-0.0352,-0.0346,-0.0308,-0.032,-0.0294,-0.025,-0.0231,-0.0215,-0.0129,-0.0086,-0.0042,-0.0046,-0.0022,0.0012,-0.002,0.0013,0.0015,0.0018,0.0063,0.007,-0.0008,-0.0008,-0.0008,-0.0007,0,-0.0398,-0.0409,-0.0416,-0.0416,-0.0405,-0.0408,-0.0372,-0.0361,-0.0335,-0.0297,-0.025,-0.0184,-0.0131,-0.0113,-0.0081,-0.0044,-0.0025,-0.0002,0.0024,0.0014,0.0062,0.0071,-0.0013,-0.0012,-0.0011,-0.001,0,0,-0.0433,-0.0442,-0.0446,-0.0461,-0.0439,-0.0436,-0.0431,-0.0407,-0.0401,-0.0344,-0.0316,-0.0248,-0.0203,-0.017,-0.0118,-0.0071,-0.0026,-0.0037,-0.0033,0.0001,0.0085,0.0074,0.0083,0.0001,0.0002,0.0003,0.011,0,-0.0473,-0.0512,-0.0496,-0.0532,-0.0548,-0.0513,-0.0512,-0.0481,-0.044,-0.0403,-0.0317,-0.027,-0.0225,-0.0199,-0.0145,-0.0053,-0.0006,-0.0058,0.0095,0.0099,0.0086,0.0092,0.0007,0.0116,0.0118,0.012,0.0121,0,-0.051,-0.0533,-0.0579,-0.0597,-0.06,-0.0613,-0.0604,-0.0591,-0.0523,-0.0484,-0.0414,-0.0342,-0.0255,-0.0219,-0.0069,-0.0105,-0.0022,0.005,0.0056,0.0074,0.0104,0.0132,0.0137,0.0136,0.0135,0.0134,0.0133,0,-0.0554,-0.0588,-0.0632,-0.0636,-0.0648,-0.0662,-0.0662,-0.0619,-0.0604,-0.0525,-0.0498,-0.0383,-0.0316,-0.02,-0.0052,-0.0059,0.0115,0.0129,0.0198,0.0199,0.0205,0.0203,0.0229,0.0229,0.0229,0.0229,0.0228,0,-0.0593,-0.063,-0.0663,-0.0685,-0.0738,-0.0715,-0.0744,-0.0721,-0.0672,-0.0647,-0.0541,-0.0492,-0.0309,-0.0185,-0.0061,0.0096,0.0114,0.0194,0.0227,0.0175,0.0168,0.0212,0.0208,0.0233,0.0232,0.0231,0.023,0,-0.0629,-0.0652,-0.0708,-0.0745,-0.0763,-0.0795,-0.0809,-0.0816,-0.0763,-0.0725,-0.0697,-0.0556,-0.0393,-0.0213,-0.0005,0.0083,0.0234,0.0285,0.0214,0.0241,0.0282,0.0274,0.0366,0.0367,0.0367,0.0367,0.0368,0,-0.0648,-0.0683,-0.0759,-0.0803,-0.0827,-0.0869,-0.0897,-0.0865,-0.0856,-0.0764,-0.0741,-0.0582,-0.0471,-0.0184,-0.0006,0.0237,0.0266,0.0336,0.0307,0.0275,0.0298,0.0289,0.028,0.0368,0.0369,0.0369,0.0369,0,-0.0681,-0.0715,-0.0762,-0.0859,-0.0913,-0.096,-0.0986,-0.0984,-0.0925,-0.0885,-0.0758,-0.0598,-0.0411,-0.0188,0.0009,0.0176,0.0285,0.0341,0.0341,0.0315,0.0279,0.0299,0.029,0.037,0.037,0.037,0.037,0,-0.0701,-0.0748,-0.0821,-0.0898,-0.0975,-0.1021,-0.1032,-0.1002,-0.0977,-0.0859,-0.0821,-0.0608,-0.0475,-0.022,-0.0045,0.0128,0.0161,0.0197,0.0205,0.0205,0.0123,0.0052,0.0103,0,0,0,0,0,-0.0711,-0.0768,-0.0852,-0.0936,-0.1013,-0.1051,-0.1076,-0.1066,-0.1012,-0.0927,-0.0865,-0.0685,-0.0401,-0.028,-0.0108,-0.0056,0.0174,0.0146,0.0215,0.0379,0.0377,0.0306,0,0,0,0,0,0,-0.0721,-0.0803,-0.0851,-0.0948,-0.1007,-0.1077,-0.1093,-0.106,-0.0999,-0.0923,-0.0769,-0.0665,-0.039,-0.0494,-0.011,-0.0058,0.0002,0.0288,0.0291,0.038,0.0378,0.0377,0.0304,0,0,0,0,0]}]]